CW2057 Weather Reports


Display with metric or nautical units.
time (UTC)temp
F
wind
direction
speed
MPH
gust
MPH
rain 1hr
in
rain 24hr
in
rain mn
in
humidity
%
barometer
mb
20260504202122 76 195 4.0 12.0 0.00 0.00 0.00 34 1010.7
20260504201632 76 149 2.0 12.0 0.00 0.00 0.00 35 1010.7
20260504201121 76 154 3.0 11.0 0.00 0.00 0.00 34 1010.7
20260504200630 77 249 2.0 11.0 0.00 0.00 0.00 33 1010.7
20260504200118 77 342 3.0 12.0 0.00 0.00 0.00 33 1010.7
20260504195628 76 305 3.0 12.0 0.00 0.00 0.00 34 1010.7
20260504195135 76 255 2.0 12.0 0.00 0.00 0.00 34 1011.0
20260504194644 76 308 6.0 13.0 0.00 0.00 0.00 33 1011.0
20260504194132 76 305 4.0 13.0 0.00 0.00 0.00 36 1011.1
20260504193621 76 218 5.0 11.0 0.00 0.00 0.00 34 1011.3
20260504193147 76 222 7.0 15.0 0.00 0.00 0.00 33 1011.5
20260504192614 76 286 5.0 16.0 0.00 0.00 0.00 34 1011.5
20260504192122 75 229 6.0 16.0 0.00 0.00 0.00 36 1011.6
20260504191651 75 320 3.0 9.0 0.00 0.00 0.00 36 1011.6
20260504191118 75 202 3.0 10.0 0.00 0.00 0.00 35 1011.8
20260504190627 75 81 1.0 10.0 0.00 0.00 0.00 37 1011.8
20260504190115 76 278 4.0 13.0 0.00 0.00 0.00 37 1012.0
20260504185644 75 226 4.0 13.0 0.00 0.00 0.00 36 1012.0
20260504185131 75 241 5.0 13.0 0.00 0.00 0.00 36 1012.0
20260504184621 75 51 6.0 11.0 0.00 0.00 0.00 36 1012.2
20260504184149 75 263 3.0 8.0 0.00 0.00 0.00 35 1012.1
20260504183637 75 284 3.0 12.0 0.00 0.00 0.00 36 1012.3
20260504183124 75 312 4.0 12.0 0.00 0.00 0.00 35 1012.4
20260504182649 75 232 4.0 12.0 0.00 0.00 0.00 36 1012.4
20260504182137 75 288 3.0 17.0 0.00 0.00 0.00 35 1012.4
20260504181624 75 21 5.0 17.0 0.00 0.00 0.00 34 1012.4
20260504181114 75 307 7.0 13.0 0.00 0.00 0.00 34 1012.5
20260504180622 74 191 5.0 11.0 0.00 0.00 0.00 33 1012.5
20260504180132 74 204 3.0 9.0 0.00 0.00 0.00 36 1012.6
20260504175619 74 293 2.0 11.0 0.00 0.00 0.00 36 1012.7
20260504175129 74 278 3.0 11.0 0.00 0.00 0.00 35 1012.7
20260504174618 73 317 3.0 8.0 0.00 0.00 0.00 34 1012.6
20260504174126 74 201 1.0 9.0 0.00 0.00 0.00 34 1012.6
20260504173615 74 293 3.0 9.0 0.00 0.00 0.00 35 1012.9
20260504173124 73 269 2.0 16.0 0.00 0.00 0.00 35 1012.8
20260504172632 73 269 7.0 16.0 0.00 0.00 0.00 36 1012.9
20260504172120 73 295 5.0 12.0 0.00 0.00 0.00 35 1012.9
20260504171648 74 284 4.0 11.0 0.00 0.00 0.00 31 1013.0
20260504171116 73 282 5.0 12.0 0.00 0.00 0.00 37 1013.0
20260504170626 73 181 4.0 10.0 0.00 0.00 0.00 34 1013.1
20260504170150 73 325 2.0 11.0 0.00 0.00 0.00 36 1013.1
20260504160153 72 293 5.0 11.0 0.00 0.00 0.00 33 1014.0
20260504151115 69 165 2.0 13.0 0.00 0.00 0.00 39 1014.5
20260504150623 69 46 4.0 13.0 0.00 0.00 0.00 35 1014.6
20260504150132 69 261 3.0 10.0 0.00 0.00 0.00 36 1014.7
20260504141130 65 325 1.0 9.0 0.00 0.00 0.00 40 1014.7
20260504140619 66 241 1.0 7.0 0.00 0.00 0.00 42 1014.9
20260504140147 65 230 3.0 7.0 0.00 0.00 0.00 44 1014.9
20260504130615 61 217 1.0 5.0 0.00 0.00 0.00 50 1015.2
20260504130124 60 293 1.0 5.0 0.00 0.00 0.00 49 1015.2
20260504120125 50 276 0.0 4.0 0.00 0.00 0.00 68 1015.5
20260504110618 47 304 0.0 2.0 0.00 0.00 0.00 73 1015.6
20260504110127 46 304 0.0 2.0 0.00 0.00 0.00 73 1015.6
20260504100127 47 303 0.0 0.0 0.00 0.00 0.00 73 1015.5
20260504090131 45 212 0.0 0.0 0.00 0.00 0.00 77 1015.9
20260504081626 45 320 0.0 0.0 0.00 0.00 0.00 76 1016.1
20260504081114 45 320 0.0 0.0 0.00 0.00 0.00 76 1016.1
20260504080624 45 320 0.0 0.0 0.00 0.00 0.00 74 1016.0
20260504080133 45 253 0.0 0.0 0.00 0.00 0.00 74 1016.1
20260504070116 44 253 0.0 0.0 0.00 0.00 0.00 74 1016.1
20260504060122 43 253 0.0 0.0 0.00 0.00 0.00 74 1016.4
20260504050629 43 321 0.0 0.0 0.00 0.00 0.00 75 1016.3
20260504050117 43 321 0.0 0.0 0.00 0.00 0.00 75 1016.3
20260504045626 43 321 0.0 0.0 0.00 0.00 0.00 74 1016.3
20260504045116 43 321 0.0 0.0 0.00 0.00 0.00 74 1016.3
20260504044624 43 321 0.0 0.0 0.00 0.00 0.00 74 1016.3
20260504044114 43 321 0.0 0.0 0.00 0.00 0.00 74 1016.4
20260504043623 43 321 0.0 0.0 0.00 0.00 0.00 74 1016.3
20260504043132 43 321 0.0 0.0 0.00 0.00 0.00 74 1016.3
20260504042618 43 321 0.0 0.0 0.00 0.00 0.00 74 1016.3
20260504042126 43 321 0.0 0.0 0.00 0.00 0.00 72 1016.4
20260504041615 44 321 0.0 0.0 0.00 0.00 0.00 70 1016.3
20260504041140 45 321 0.0 0.0 0.00 0.00 0.00 69 1016.4
20260504040629 45 322 0.0 0.0 0.00 0.00 0.00 69 1016.3
20260504040117 45 321 0.0 2.0 0.00 0.00 0.00 70 1016.3
20260504035622 44 321 1.0 2.0 0.00 0.00 0.00 72 1016.3
20260504035131 44 229 0.0 2.0 0.00 0.00 0.00 69 1016.2
20260504034620 44 240 0.0 0.0 0.00 0.00 0.00 72 1016.1
20260504034129 44 240 0.0 0.0 0.00 0.00 0.00 70 1016.2
20260504033617 45 238 0.0 0.0 0.00 0.00 0.00 67 1016.1
20260504033125 46 238 0.0 0.0 0.00 0.00 0.00 65 1016.1
20260504032654 46 311 0.0 0.0 0.00 0.00 0.00 66 1015.9
20260504032122 45 311 0.0 0.0 0.00 0.00 0.00 69 1015.8
20260504031631 45 311 0.0 0.0 0.00 0.00 0.00 70 1015.8
20260504031119 45 311 0.0 0.0 0.00 0.00 0.00 68 1015.8
20260504030627 46 311 0.0 0.0 0.00 0.00 0.00 65 1015.8
20260504030117 47 311 0.0 0.0 0.00 0.00 0.00 64 1015.8
20260504025625 47 311 0.0 0.0 0.00 0.00 0.00 66 1015.7
20260504025114 45 311 0.0 0.0 0.00 0.00 0.00 69 1015.8
20260504024623 45 311 0.0 0.0 0.00 0.00 0.00 66 1015.7
20260504024148 46 311 0.0 0.0 0.00 0.00 0.00 66 1015.8
20260504023616 46 311 0.0 0.0 0.00 0.00 0.00 64 1015.8
20260504023125 46 311 0.0 0.0 0.00 0.00 0.00 63 1015.8
20260504022635 47 311 0.0 0.0 0.00 0.00 0.00 61 1015.8
20260504022123 48 311 0.0 0.0 0.00 0.00 0.00 61 1015.9
20260504021631 49 311 0.0 0.0 0.00 0.00 0.00 59 1015.8
20260504021119 48 311 0.0 0.0 0.00 0.00 0.00 61 1015.7
20260504020627 48 311 0.0 0.0 0.00 0.00 0.00 60 1015.6
20260504020117 48 311 0.0 0.0 0.00 0.00 0.00 60 1015.7
20260504015625 49 311 0.0 0.0 0.00 0.00 0.00 58 1015.6
20260504015115 49 311 0.0 0.0 0.00 0.00 0.00 57 1015.6
20260504014619 49 311 0.0 0.0 0.00 0.00 0.00 59 1015.6
20260504014128 49 311 0.0 0.0 0.00 0.00 0.00 60 1015.6
20260504013637 49 311 0.0 0.0 0.00 0.00 0.00 59 1015.6
20260504013125 49 311 0.0 0.0 0.00 0.00 0.00 55 1015.6
20260504012613 50 311 0.0 0.0 0.00 0.00 0.00 57 1015.6
20260504012117 50 311 0.0 0.0 0.00 0.00 0.00 54 1015.6
20260504011626 51 311 0.0 0.0 0.00 0.00 0.00 54 1015.6
20260504011115 51 311 0.0 0.0 0.00 0.00 0.00 54 1015.6
20260504010644 51 311 0.0 0.0 0.00 0.00 0.00 51 1015.4
20260504010132 52 311 0.0 0.0 0.00 0.00 0.00 52 1015.3
20260504005622 52 311 0.0 0.0 0.00 0.00 0.00 51 1015.2
20260504005130 52 311 0.0 0.0 0.00 0.00 0.00 54 1015.3
20260504004619 52 311 0.0 0.0 0.00 0.00 0.00 50 1015.2
20260504004127 52 311 0.0 0.0 0.00 0.00 0.00 49 1015.1
20260504003617 53 311 0.0 0.0 0.00 0.00 0.00 47 1015.1
20260504003125 53 311 0.0 0.0 0.00 0.00 0.00 46 1015.1
20260504002614 54 311 0.0 0.0 0.00 0.00 0.00 48 1015.1
20260504002123 54 311 0.0 0.0 0.00 0.00 0.00 44 1015.0
20260504001633 55 311 0.0 0.0 0.00 0.00 0.00 47 1014.8
20260504001121 55 311 0.0 1.0 0.00 0.00 0.00 44 1014.9
20260504000630 56 311 0.0 1.0 0.00 0.00 0.00 41 1014.8
20260504000117 57 311 0.0 1.0 0.00 0.00 0.00 39 1014.8
20260503235626 57 307 0.0 1.0 0.00 0.00 0.00 40 1014.7
20260503235115 57 307 0.0 2.0 0.00 0.00 0.00 37 1014.7
20260503234625 58 312 1.0 3.0 0.00 0.00 0.00 37 1014.7
20260503234128 58 299 2.0 3.0 0.00 0.00 0.00 35 1014.7
20260503233618 59 312 0.0 3.0 0.00 0.00 0.00 34 1014.5
20260503233126 59 300 1.0 3.0 0.00 0.00 0.00 34 1014.5
20260503232615 59 295 0.0 5.0 0.00 0.00 0.00 33 1014.4
20260503232123 60 304 2.0 5.0 0.00 0.00 0.00 32 1014.4
20260503231632 60 309 1.0 4.0 0.00 0.00 0.00 32 1014.4
20260503231122 60 301 1.0 8.0 0.00 0.00 0.00 31 1014.4
20260503230630 60 11 1.0 8.0 0.00 0.00 0.00 32 1014.4
20260503230119 60 299 2.0 8.0 0.00 0.00 0.00 31 1014.3
20260503225629 61 15 1.0 7.0 0.00 0.00 0.00 33 1014.2
20260503225118 61 314 1.0 7.0 0.00 0.00 0.00 32 1014.4
20260503224627 61 288 2.0 4.0 0.00 0.00 0.00 32 1014.4
20260503224116 61 309 2.0 7.0 0.00 0.00 0.00 31 1014.4
20260503223624 61 340 3.0 7.0 0.00 0.00 0.00 32 1014.4
20260503223132 61 295 2.0 7.0 0.00 0.00 0.00 31 1014.4
20260503222620 61 300 3.0 7.0 0.00 0.00 0.00 30 1014.4
20260503222129 61 328 1.0 5.0 0.00 0.00 0.00 30 1014.4
20260503221619 61 34 2.0 9.0 0.00 0.00 0.00 30 1014.4
20260503221128 61 92 3.0 15.0 0.00 0.00 0.00 30 1014.4
20260503220617 62 331 5.0 15.0 0.00 0.00 0.00 30 1014.5
20260503220126 62 313 4.0 11.0 0.00 0.00 0.00 30 1014.4
20260503215636 62 293 3.0 11.0 0.00 0.00 0.00 31 1014.4
20260503215118 62 316 3.0 11.0 0.00 0.00 0.00 30 1014.5
20260503214627 62 20 4.0 12.0 0.00 0.00 0.00 29 1014.4
20260503214115 62 20 3.0 12.0 0.00 0.00 0.00 29 1014.5
20260503213644 62 281 7.0 12.0 0.00 0.00 0.00 29 1014.4
20260503213132 62 343 5.0 12.0 0.00 0.00 0.00 29 1014.5
20260503212621 62 287 3.0 12.0 0.00 0.00 0.00 30 1014.5
20260503212129 63 288 3.0 9.0 0.00 0.00 0.00 31 1014.4
20260503211619 62 353 3.0 9.0 0.00 0.00 0.00 31 1014.4
20260503211127 62 5 3.0 10.0 0.00 0.00 0.00 29 1014.3
20260503210635 62 9 1.0 12.0 0.00 0.00 0.00 32 1014.4
20260503210123 62 300 5.0 16.0 0.00 0.00 0.00 29 1014.4
20260503205632 62 308 7.0 16.0 0.00 0.00 0.00 29 1014.4
20260503205120 62 71 2.0 11.0 0.00 0.00 0.00 30 1014.5
20260503204630 62 308 4.0 13.0 0.00 0.00 0.00 29 1014.5
20260503204118 62 290 6.0 13.0 0.00 0.00 0.00 31 1014.4
20260503203628 62 300 5.0 12.0 0.00 0.00 0.00 33 1014.5
20260503203116 61 325 3.0 10.0 0.00 0.00 0.00 34 1014.7
20260503202624 61 344 2.0 10.0 0.00 0.00 0.00 33 1014.8